| time (UTC) | temp F | wind direction | speed MPH | gust MPH | rain 1hr in | rain 24hr in | rain mn in | humidity % | barometer mb |
| 20260504060105 | 59 | 61 | 1.0 | 7.0 | 0.00 | 0.00 | 0.00 | 29 | 1020.7 |
| 20260504044554 | 60 | 229 | 1.0 | 4.0 | 0.00 | 0.00 | 0.00 | 28 | 1020.9 |
| 20260504043051 | 60 | 0 | 0.0 | 2.0 | 0.00 | 0.00 | 0.00 | 28 | 1020.7 |
| 20260504041551 | 61 | 0 | 0.0 | 2.0 | 0.00 | 0.00 | 0.00 | 28 | 1020.9 |
| 20260504040059 | 61 | 246 | 0.0 | 3.0 | 0.00 | 0.00 | 0.00 | 28 | 1021.0 |
| 20260504034556 | 62 | 0 | 0.0 | 4.0 | 0.00 | 0.00 | 0.00 | 28 | 1021.3 |
| 20260504033108 | 61 | 234 | 0.0 | 5.0 | 0.00 | 0.00 | 0.00 | 28 | 1021.1 |
| 20260504031601 | 61 | 249 | 0.0 | 2.0 | 0.00 | 0.00 | 0.00 | 28 | 1021.3 |
| 20260504030052 | 61 | 0 | 0.0 | 0.0 | 0.00 | 0.00 | 0.00 | 30 | 1021.1 |
| 20260504024600 | 62 | 0 | 0.0 | 0.0 | 0.00 | 0.00 | 0.00 | 30 | 1021.0 |
| 20260504023054 | 62 | 0 | 0.0 | 2.0 | 0.00 | 0.00 | 0.00 | 29 | 1021.0 |
| 20260504021555 | 63 | 0 | 0.0 | 0.0 | 0.00 | 0.00 | 0.00 | 29 | 1021.1 |
| 20260504020053 | 63 | 0 | 0.0 | 0.0 | 0.00 | 0.00 | 0.00 | 28 | 1021.0 |
| 20260504014557 | 64 | 0 | 0.0 | 0.0 | 0.00 | 0.00 | 0.00 | 28 | 1020.8 |
| 20260504013105 | 65 | 0 | 0.0 | 2.0 | 0.00 | 0.00 | 0.00 | 27 | 1020.7 |
| 20260504011551 | 65 | 0 | 0.0 | 5.0 | 0.00 | 0.00 | 0.00 | 27 | 1020.6 |
| 20260504010048 | 66 | 0 | 0.0 | 6.0 | 0.00 | 0.00 | 0.00 | 27 | 1020.7 |
| 20260504004611 | 66 | 0 | 0.0 | 3.0 | 0.00 | 0.00 | 0.00 | 27 | 1020.8 |
| 20260504003047 | 66 | 165 | 0.0 | 7.0 | 0.00 | 0.00 | 0.00 | 25 | 1020.8 |
| 20260504001556 | 67 | 32 | 1.0 | 7.0 | 0.00 | 0.00 | 0.00 | 25 | 1021.0 |
| 20260503234548 | 67 | 360 | 2.0 | 10.0 | 0.00 | 0.00 | 0.00 | 24 | 1021.3 |
| 20260503233055 | 68 | 0 | 0.0 | 6.0 | 0.00 | 0.00 | 0.00 | 25 | 1020.8 |
| 20260503231555 | 68 | 9 | 2.0 | 13.0 | 0.00 | 0.00 | 0.00 | 23 | 1020.7 |
| 20260503230053 | 68 | 24 | 0.0 | 7.0 | 0.00 | 0.00 | 0.00 | 22 | 1020.7 |
| 20260503224553 | 68 | 244 | 2.0 | 7.0 | 0.00 | 0.00 | 0.00 | 20 | 1020.9 |
| 20260503223100 | 69 | 350 | 3.0 | 18.0 | 0.00 | 0.00 | 0.00 | 21 | 1020.7 |
| 20260503221555 | 69 | 28 | 1.0 | 12.0 | 0.00 | 0.00 | 0.00 | 22 | 1020.8 |
| 20260503220100 | 70 | 323 | 1.0 | 20.0 | 0.00 | 0.00 | 0.00 | 18 | 1021.4 |
| 20260503214605 | 71 | 212 | 2.0 | 8.0 | 0.00 | 0.00 | 0.00 | 20 | 1021.4 |
| 20260503213054 | 72 | 24 | 1.0 | 8.0 | 0.00 | 0.00 | 0.00 | 18 | 1021.8 |
| 20260503211604 | 72 | 287 | 1.0 | 11.0 | 0.00 | 0.00 | 0.00 | 16 | 1022.0 |
| 20260503210055 | 73 | 267 | 2.0 | 7.0 | 0.00 | 0.00 | 0.00 | 17 | 1022.0 |
| 20260503204600 | 74 | 309 | 0.0 | 3.0 | 0.00 | 0.00 | 0.00 | 14 | 1022.4 |
| 20260503203057 | 74 | 228 | 0.0 | 6.0 | 0.00 | 0.00 | 0.00 | 15 | 1022.3 |
| 20260503201552 | 75 | 103 | 1.0 | 8.0 | 0.00 | 0.00 | 0.00 | 15 | 1022.6 |
| 20260503200101 | 73 | 119 | 2.0 | 8.0 | 0.00 | 0.00 | 0.00 | 14 | 1022.6 |
| 20260503194550 | 72 | 142 | 2.0 | 11.0 | 0.00 | 0.00 | 0.00 | 15 | 1023.0 |
| 20260503193055 | 72 | 0 | 1.0 | 4.0 | 0.00 | 0.00 | 0.00 | 16 | 1023.1 |
| 20260503191547 | 72 | 65 | 2.0 | 7.0 | 0.00 | 0.00 | 0.00 | 16 | 1023.3 |
| 20260503190056 | 72 | 68 | 2.0 | 5.0 | 0.00 | 0.00 | 0.00 | 16 | 1023.3 |
| 20260503184602 | 73 | 0 | 3.0 | 8.0 | 0.00 | 0.00 | 0.00 | 15 | 1023.7 |
| 20260503183048 | 72 | 0 | 2.0 | 7.0 | 0.00 | 0.00 | 0.00 | 16 | 1023.9 |
| 20260503181548 | 72 | 0 | 2.0 | 7.0 | 0.00 | 0.00 | 0.00 | 17 | 1024.1 |
| 20260503180055 | 72 | 229 | 2.0 | 7.0 | 0.00 | 0.00 | 0.00 | 14 | 1024.3 |
| 20260503174604 | 71 | 88 | 1.0 | 15.0 | 0.00 | 0.00 | 0.00 | 16 | 1024.7 |
| 20260503173055 | 68 | 52 | 0.0 | 2.0 | 0.00 | 0.00 | 0.00 | 21 | 1025.2 |
| 20260503171551 | 68 | 0 | 1.0 | 3.0 | 0.00 | 0.00 | 0.00 | 18 | 1025.6 |
| 20260503100106 | 53 | 266 | 0.0 | 2.0 | 0.00 | 0.00 | 0.00 | 34 | 1025.9 |
| 20260503081556 | 56 | 249 | 3.0 | 8.0 | 0.00 | 0.00 | 0.00 | 27 | 1026.2 |
| 20260503071554 | 53 | 235 | 2.0 | 7.0 | 0.00 | 0.00 | 0.00 | 24 | 1026.5 |